Weather History for Dillon, MT

Change the Weather History Date:

Friday, November 1, 2013

  Actual Average Record
Temperature  
Mean Temperature 39 °F 38 °F  
Max Temperature 51 °F 50 °F 71 °F (1965)
Min Temperature 27 °F 26 °F -8 °F (2002)
Degree Days  
Heating Degree Days 26    
Month to date heating degree days 26  
Since 1 July heating degree days 1031  
Cooling Degree Days 0    
Month to date cooling degree days 0  
Year to date cooling degree days 247  
Moisture  
Dew Point 26 °F    
Average Humidity 59    
Maximum Humidity 85    
Minimum Humidity 32    
Precipitation  
Precipitation 0.00 in 0.02 in 0.13 in (1991)
Month to date precipitation 0.00 0.02  
Year to date precipitation 9.47 9.95  
Snow  
Snow 0.00 in - - ()
Snow Depth 0.00 in    
Sea Level Pressure  
Sea Level Pressure 30.16 in    
Wind  
Wind Speed 11 mph (SSW)    
Max Wind Speed 22 mph    
Max Gust Speed 26 mph    
Visibility 10 miles    
Events      
T = Trace of Precipitation, MM = Missing Value Source: NWS Daily Summary

Daily Weather History Graph

Daily Weather History Graph

Search for Another Location

Airport:

Trip Planner

Search our weather history database for the weather conditions in past years. The results will help you decide how hot, cold, wet, or windy it might be!

Date:

Astronomy

Nov. 01, 2013 Rise Set
Actual Time 8:09 AM MDT 6:17 PM MDT
Civil Twilight 7:38 AM MDT 6:48 PM MDT
Nautical Twilight 7:03 AM MDT 7:22 PM MDT
Astronomical Twilight 6:29 AM MDT 7:57 PM MDT
Moon 6:01 AM MDT (11/1) 5:16 PM MDT (11/1)
Length of Visible Light 11h 09m
Length of Day
10h 07m
Waning Crescent, 4% of the Moon is Illuminated
Nov 1
Waning Crescent
Nov 3
New
Nov 9
First Quarter
Nov 17
Full
Nov 25
Last Quarter

Hourly Weather History & Observations

Time (MDT) Temp. Windchill Dew Point Humidity Pressure Visibility Wind Dir Wind Speed Gust Speed Precip Events Conditions
12:53 AM 30.9 °F 23.5 °F 26.1 °F 82% 30.12 in 10.0 mi South 8.1 mph - N/A   Partly Cloudy
1:53 AM 33.1 °F 26.9 °F 25.0 °F 72% 30.11 in 10.0 mi WSW 6.9 mph - N/A   Scattered Clouds
2:53 AM 33.1 °F 26.9 °F 26.1 °F 75% 30.12 in 10.0 mi SSW 6.9 mph - N/A   Mostly Cloudy
3:53 AM 32.0 °F 24.8 °F 25.0 °F 75% 30.14 in 10.0 mi SW 8.1 mph - N/A   Clear
4:53 AM 32.0 °F 24.2 °F 25.0 °F 75% 30.16 in 10.0 mi South 9.2 mph - N/A   Overcast
5:53 AM 35.1 °F 28.6 °F 26.1 °F 70% 30.15 in 10.0 mi SW 8.1 mph - N/A   Overcast
6:53 AM 33.1 °F 27.7 °F 26.1 °F 75% 30.21 in 10.0 mi South 5.8 mph - N/A   Scattered Clouds
7:53 AM 33.1 °F 28.7 °F 27.0 °F 78% 30.22 in 10.0 mi WSW 4.6 mph - N/A   Overcast
8:53 AM 36.0 °F 29.0 °F 28.0 °F 73% 30.23 in 10.0 mi South 9.2 mph - N/A   Overcast
9:53 AM 37.0 °F 29.8 °F 28.9 °F 73% 30.27 in 10.0 mi SSW 10.4 mph - N/A   Mostly Cloudy
10:53 AM 44.1 °F 37.7 °F 28.0 °F 53% 30.23 in 10.0 mi WSW 12.7 mph - N/A   Clear
11:53 AM 46.9 °F - 27.0 °F 46% 30.22 in 10.0 mi WSW 16.1 mph 24.2 mph N/A   Mostly Cloudy
12:53 PM 48.0 °F - 26.1 °F 42% 30.19 in 10.0 mi SW 18.4 mph 26.5 mph N/A   Clear
1:53 PM 50.0 °F - 26.1 °F 39% 30.16 in 10.0 mi SSW 15.0 mph 21.9 mph N/A   Clear
2:53 PM 50.0 °F - 25.0 °F 38% 30.14 in 10.0 mi WSW 12.7 mph 24.2 mph N/A   Clear
3:53 PM 51.1 °F - 23.0 °F 33% 30.12 in 10.0 mi SW 17.3 mph 24.2 mph N/A   Clear
4:53 PM 51.1 °F - 24.1 °F 35% 30.12 in 10.0 mi SW 12.7 mph - N/A   Clear
5:53 PM 46.9 °F - 25.0 °F 42% 30.11 in 10.0 mi SW 11.5 mph - N/A   Clear
6:53 PM 42.1 °F 35.2 °F 23.0 °F 47% 30.14 in 10.0 mi SSW 12.7 mph - N/A   Clear
7:53 PM 37.9 °F 30.9 °F 26.1 °F 62% 30.17 in 10.0 mi SSE 10.4 mph - N/A   Mostly Cloudy
8:53 PM 37.0 °F 29.3 °F 25.0 °F 62% 30.16 in 10.0 mi SSW 11.5 mph - N/A   Clear
9:53 PM 35.1 °F 27.4 °F 25.0 °F 67% 30.17 in 10.0 mi SSW 10.4 mph - N/A   Clear
10:53 PM 36.0 °F 29.0 °F 25.0 °F 64% 30.14 in 10.0 mi South 9.2 mph - N/A   Clear
11:53 PM 34.0 °F 28.0 °F 26.1 °F 73% 30.12 in 10.0 mi South 6.9 mph - N/A   Clear